User: anonymous   Login
Location: Unspecified
(0.0000°N, 0.0000°E)
Time: 15:26:45
(UTC+00:00)
Language:

GRIFEX - Orbit

View from above orbital plane
View from above orbital plane
View from above satellite
View from above satellite

Ground track
Ground track

The orbit data is extracted from the following two-line orbital elements,

1 40379U 15003D   21337.01224108  .00003649  00000-0  14458-3 0  9993
2 40379  99.1135 141.9839 0124914   4.1792 356.0450 15.19371818377770
Epoch (UTC): 03 December 2021 00:17:37
Eccentricity: 0.0124914
inclination: 99.1135°
perigee height: 422 km
apogee height: 594 km
right ascension of ascending node: 141.9839°
argument of perigee: 4.1792°
revolutions per day: 15.19371818
mean anomaly at epoch: 356.0450°
orbit number at epoch: 37777

The dashed part of the orbit path shows where the satellite is in the earth's shadow,  

DLR